Starlink 4473

operational
NORAD ID: 53660 Int'l Des: 2022-105 Owner: SPXS Country: US Constellation: starlink
LEOCIRCULARRETROGRADESSO

关于 Starlink 4473

正在加载描述...

实时位置

正在加载3D地球...

即将过境

高度历史

Altitude vs Time

uPlot chart will show altitude changes over time

两行轨道根数

1 53660U 22105N 25352.57347026 -.00000777 00000-0 -56006-4 0 9995
2 53660 97.6016 230.7914 0000535 98.0759 262.0526 15.01260891181060
Epoch: Dec 18, 2025 • Age: 7 hours

当前状态

高度 565.5 km
速度 7.58 km/s
星下点 20.60°N, 13.19°E
发射日期 Aug 31, 2022
运行时间 3.2 years
类型 internet

技术详情

分类 Payload
质量 300.00 kg
干质量 290.00 kg
总质量 300.00 kg
长度 0.20 m
直径 2.80 m
跨度 9.00 m
形状 Box + pan
制造商 SPXS
平台类型 Starlink
阶段状态 In Orbit
所有者/国家 SPXS/US

大型星座

Loading constellations...